TA4KPM-13 Weather Reports


time (UTC)temp
F
wind
direction
speed
knots
gust
knots
rain 1hr
in
rain 24hr
in
rain mn
in
humidity
%
barometer
mb
20260906103222 97 0.0 0.0 0.00 0.00 0.00 1
20260906102722 96 0.0 0.0 0.00 0.00 0.00 1
20260906102220 96 0.0 0.0 0.00 0.00 0.00 1
20260906101213 96 0.0 0.0 0.00 0.00 0.00 1
20260906100715 96 0.0 0.0 0.00 0.00 0.00 1
20260906095707 93 0.0 0.0 0.00 0.00 0.00 1
20260906095207 94 0.0 0.0 0.00 0.00 0.00 1
20260906094703 94 0.0 0.0 0.00 0.00 0.00 1
20260906094201 95 0.0 0.0 0.00 0.00 0.00 1
20260906092654 93 0.0 0.0 0.00 0.00 0.00 3
20260906091650 94 0.0 0.0 0.00 0.00 0.00 2
20260906091149 93 0.0 0.0 0.00 0.00 0.00 3
20260906090647 91 0.0 0.0 0.00 0.00 0.00 5
20260906090144 91 0.0 0.0 0.00 0.00 0.00 4
20260906085643 92 0.0 0.0 0.00 0.00 0.00 3
20260906085145 91 0.0 0.0 0.00 0.00 0.00 3
20260906084639 91 0.0 0.0 0.00 0.00 0.00 4
20260906084135 90 0.0 0.0 0.00 0.00 0.00 6
20260906083633 90 0.0 0.0 0.00 0.00 0.00 5
20260906083131 90 0.0 0.0 0.00 0.00 0.00 6
20260906081629 89 0.0 0.0 0.00 0.00 0.00 5
20260906081123 89 0.0 0.0 0.00 0.00 0.00 7
20260906080118 88 0.0 0.0 0.00 0.00 0.00 7
20260906074612 88 0.0 0.0 0.00 0.00 0.00 7
20260906074110 87 0.0 0.0 0.00 0.00 0.00 8
20260906073608 87 0.0 0.0 0.00 0.00 0.00 9
20260906073108 87 0.0 0.0 0.00 0.00 0.00 9
20260906072103 86 0.0 0.0 0.00 0.00 0.00 10
20260906071559 88 0.0 0.0 0.00 0.00 0.00 9
20260906071057 86 0.0 0.0 0.00 0.00 0.00 10
20260906070555 89 0.0 0.0 0.00 0.00 0.00 8
20260906070056 87 0.0 0.0 0.00 0.00 0.00 9
20260906065612 86 0.0 0.0 0.00 0.00 0.00 10
20260906065551 86 0.0 0.0 0.00 0.00 0.00 10
20260906065049 87 0.0 0.0 0.00 0.00 0.00 9
20260906064547 86 0.0 0.0 0.00 0.00 0.00 9
20260906064044 85 0.0 0.0 0.00 0.00 0.00 11
20260906063542 85 0.0 0.0 0.00 0.00 0.00 11
20260906063040 83 0.0 0.0 0.00 0.00 0.00 11
20260906062541 84 0.0 0.0 0.00 0.00 0.00 11
20260906062041 83 0.0 0.0 0.00 0.00 0.00 11
20260906061534 83 0.0 0.0 0.00 0.00 0.00 11
20260906061032 83 0.0 0.0 0.00 0.00 0.00 13
20260906060028 83 0.0 0.0 0.00 0.00 0.00 12
20260906055526 82 0.0 0.0 0.00 0.00 0.00 13
20260906055026 80 0.0 0.0 0.00 0.00 0.00 13
20260906054523 82 0.0 0.0 0.00 0.00 0.00 13
20260906054021 81 0.0 0.0 0.00 0.00 0.00 13
20260906053020 80 0.0 0.0 0.00 0.00 0.00 15
20260906051509 79 0.0 0.0 0.00 0.00 0.00 16
20260906051010 79 0.0 0.0 0.00 0.00 0.00 16
20260906050504 77 0.0 0.0 0.00 0.00 0.00 17
20260906050002 77 0.0 0.0 0.00 0.00 0.00 17
20260906044456 76 0.0 0.0 0.00 0.00 0.00 20
20260906043954 74 0.0 0.0 0.00 0.00 0.00 20
20260906042951 74 0.0 0.0 0.00 0.00 0.00 20
20260906042450 73 0.0 0.0 0.00 0.00 0.00 20
20260906041443 75 0.0 0.0 0.00 0.00 0.00 19
20260906040941 74 0.0 0.0 0.00 0.00 0.00 21
20260906040441 73 0.0 0.0 0.00 0.00 0.00 21
20260906035937 74 0.0 0.0 0.00 0.00 0.00 20
20260906035435 74 0.0 0.0 0.00 0.00 0.00 20
20260906034933 74 0.0 0.0 0.00 0.00 0.00 20
20260906033426 73 0.0 0.0 0.00 0.00 0.00 21
20260906032422 74 0.0 0.0 0.00 0.00 0.00 19
20260906031921 74 0.0 0.0 0.00 0.00 0.00 20
20260906031420 74 0.0 0.0 0.00 0.00 0.00 20
20260906030919 74 0.0 0.0 0.00 0.00 0.00 20
20260906013338 75 0.0 0.0 0.00 0.00 0.00 20
20260906004314 76 0.0 0.0 0.00 0.00 0.00 20
20260906000800 78 0.0 0.0 0.00 0.00 0.00 18
20260905223723 80 0.0 0.0 0.00 0.00 0.00 15
20260905223222 80 0.0 0.0 0.00 0.00 0.00 15
20260905211649 80 0.0 0.0 0.00 0.00 0.00 13
20260905210644 80 0.0 0.0 0.00 0.00 0.00 12
20260905204136 80 0.0 0.0 0.00 0.00 0.00 13
20260905204133 80 0.0 0.0 0.00 0.00 0.00 13
20260905195614 81 0.0 0.0 0.00 0.00 0.00 11
20260905193610 81 0.0 0.0 0.00 0.00 0.00 11
20260905164458 85 0.0 0.0 0.00 0.00 0.00 7
20260905163954 86 0.0 0.0 0.00 0.00 0.00 7
20260905163451 86 0.0 0.0 0.00 0.00 0.00 5
20260905162951 87 0.0 0.0 0.00 0.00 0.00 4
20260905162447 86 0.0 0.0 0.00 0.00 0.00 5
20260905161945 86 0.0 0.0 0.00 0.00 0.00 5
20260905160947 86 0.0 0.0 0.00 0.00 0.00 5
20260905160450 86 0.0 0.0 0.00 0.00 0.00 5
20260905154932 87 0.0 0.0 0.00 0.00 0.00 4
20260905154430 87 0.0 0.0 0.00 0.00 0.00 5
20260905153930 88 0.0 0.0 0.00 0.00 0.00 5
20260905153426 89 0.0 0.0 0.00 0.00 0.00 4
20260905152927 89 0.0 0.0 0.00 0.00 0.00 2
20260905151920 91 0.0 0.0 0.00 0.00 0.00 1
20260905150916 92 0.0 0.0 0.00 0.00 0.00 1
20260905150413 93 0.0 0.0 0.00 0.00 0.00 1
20260905145911 93 0.0 0.0 0.00 0.00 0.00 1
20260905145409 93 0.0 0.0 0.00 0.00 0.00 1
20260905144909 93 0.0 0.0 0.00 0.00 0.00 1
20260905144405 94 0.0 0.0 0.00 0.00 0.00 1
20260905143903 95 0.0 0.0 0.00 0.00 0.00 1
20260905143403 96 0.0 0.0 0.00 0.00 0.00 1
20260905142903 95 0.0 0.0 0.00 0.00 0.00 1
20260905142357 95 0.0 0.0 0.00 0.00 0.00 1
20260905141857 95 0.0 0.0 0.00 0.00 0.00 1
20260905140854 96 0.0 0.0 0.00 0.00 0.00 1
20260905135846 95 0.0 0.0 0.00 0.00 0.00 1
20260905135344 96 0.0 0.0 0.00 0.00 0.00 1
20260905134340 95 0.0 0.0 0.00 0.00 0.00 1
20260905133840 96 0.0 0.0 0.00 0.00 0.00 1
20260905133335 94 0.0 0.0 0.00 0.00 0.00 1
20260905132835 95 0.0 0.0 0.00 0.00 0.00 1
20260905132333 95 0.0 0.0 0.00 0.00 0.00 1
20260905131328 93 0.0 0.0 0.00 0.00 0.00 1
20260905130827 93 0.0 0.0 0.00 0.00 0.00 1
20260905130323 93 0.0 0.0 0.00 0.00 0.00 1
20260905125823 93 0.0 0.0 0.00 0.00 0.00 1
20260905125320 93 0.0 0.0 0.00 0.00 0.00 1
20260905123812 91 0.0 0.0 0.00 0.00 0.00 2
20260905123311 90 0.0 0.0 0.00 0.00 0.00 2
20260905121804 89 0.0 0.0 0.00 0.00 0.00 7
20260905120802 88 0.0 0.0 0.00 0.00 0.00 8
20260905120257 87 0.0 0.0 0.00 0.00 0.00 9
20260905115755 89 0.0 0.0 0.00 0.00 0.00 6
20260905114251 94 0.0 0.0 0.00 0.00 0.00 1
20260905113747 92 0.0 0.0 0.00 0.00 0.00 1
20260905113245 95 0.0 0.0 0.00 0.00 0.00 1
20260905112240 96 0.0 0.0 0.00 0.00 0.00 1
20260905111740 96 0.0 0.0 0.00 0.00 0.00 1
20260905111236 96 0.0 0.0 0.00 0.00 0.00 1
20260905110734 96 0.0 0.0 0.00 0.00 0.00 1
20260905110232 94 0.0 0.0 0.00 0.00 0.00 1
20260905105729 96 0.0 0.0 0.00 0.00 0.00 1
20260905104726 94 0.0 0.0 0.00 0.00 0.00 1
20260905104227 96 0.0 0.0 0.00 0.00 0.00 1